Regional Weather Roundup
Issued by NWS Cleveland, OH

Home | Current Version | Previous Version | Text Only | Print | Product List | Glossary On
Versions: 1 2 3 4 5 6 7 8 9 10 11 12 13 14 15 16 17 18 19 20 21 22 23 24 25 26 27 28 29 30 31 32 33 34 35 36 37 38 39 40 41 42 43 44 45 46 47 48 49 50
000
ASUS41 KCLE 241510
RWRCLE
OHIO REGIONAL WEATHER ROUNDUP
NATIONAL WEATHER SERVICE WILMINGTON, OH
1100 AM EDT THU APR 24 2014

NOTE: "FAIR" INDICATES FEW OR NO CLOUDS BELOW 12,000 FEET WITH NO
SIGNIFICANT WEATHER AND/OR OBSTRUCTIONS TO VISIBILITY.

OHZ001>008-015>018-024>027-034-035-043-044-241600-
   NORTHWEST OHIO

CITY           SKY/WX    TMP DP  RH WIND       PRES   REMARKS
DEFIANCE       CLOUDY    51  20  29 E17       30.14F
FINDLAY        PTSUNNY   50  19  29 SE8       30.14F
TOLEDO EXPRESS PTSUNNY   48  15  26 VRB6      30.15F
TOLEDO METCALF PTSUNNY   50  19  29 E15       30.17F
LIMA           CLOUDY    52  20  28 E13       30.12F
$$

OHZ009>014-019>023-028>033-038-089-241600-
   NORTHEAST OHIO

CITY           SKY/WX    TMP DP  RH WIND       PRES   REMARKS
CLE-HOPKINS    CLOUDY    49  14  24 E6        30.21F
CLE-LAKEFRONT  CLOUDY    48  17  29 NE3       30.18S
CUY CO. ARPT   PTSUNNY   48  19  32 E9        30.19S
LORAIN-ELYRIA  CLOUDY    49  20  31 SE8       30.18F
ASHTABULA      MOSUNNY   47  18  31 VRB7      30.19S
AKRON-CANTON   CLOUDY    46  20  35 E7        30.17F
WOOSTER        CLOUDY    46  22  38 SE8       30.18F
MANSFIELD      CLOUDY    47  19  33 SE12      30.15F
YOUNGSTOWN     PTSUNNY   46  21  37 VRB3      30.18S
$$

OHZ042-051>053-060>062-070>072-077>081-241600-
  SOUTHWEST OHIO

CITY           SKY/WX    TMP DP  RH WIND       PRES   REMARKS
CINC-COVINGTON PTSUNNY   53  29  39 E14       30.09F
CINC-LUNKEN    PTSUNNY   53  24  32 E8G17     30.11F
HAMILTON       PTSUNNY   54  28  36 E13       30.11F
DAYTON         CLOUDY    53  19  26 E14       30.11F
WRIGHT-PAT AFB CLOUDY    51  16  24 E12       30.11F
DAYTON GENERAL CLOUDY    51  20  29 SE17      30.09F
WILMINGTON     PTSUNNY   50  17  27 E10       30.11S
$$

OHZ036-037-039>041-045>050-054>059-063>069-073>076-082>088-241600-
  CENTRAL AND SOUTHEAST OHIO

CITY           SKY/WX    TMP DP  RH WIND       PRES   REMARKS
COLUMBUS       MOSUNNY   53  12  19 SE13      30.13F
OSU AIRPORT    SUNNY     53  15  22 E12       30.13F
BOLTON FIELD   NOT AVBL
RICKENBACK AFB MOSUNNY   55   8  15 E8        30.13F
NEWARK         PTSUNNY   51  16  24 E8        30.14F
MARION         MOSUNNY   50  18  28 SE12      30.14F
LANCASTER      MOSUNNY   52  20  28 E8        30.14F
ZANESVILLE     PTSUNNY   48  18  30 E7        30.16F
NEW PHILLY     CLOUDY    46  19  34 SE8       30.18F
$$



USA.gov is the U.S. government's official web portal to all federal, state and local government web resources and services.